sat.trackr.live / text

‹ back to catalog

STARLINK-34358

NORAD 64313 · 2025-123Y

PAYLOAD ACTIVE UNKNOWN

§ Identity

Operator
Country
US
Launch date
2025-06-08
Launch site
AFWTR
Launch vehicle
Mass (kg)
RCS (m²)

Purposes: comms

External: N2YO · Heavens-Above · Gunter

§ Orbital elements

Epoch: 2026-09-20T21:27:49.312800Z

Period
94.14 min
Inclination
70.0004°
Eccentricity
0.0003521
Mean motion
15.29587458 rev/d
Perigee alt
474.6 km
Apogee alt
479.5 km
Semi-major
6,855.2 km
B*
4.5892e-4
RAAN
60.0724°
Arg perigee
272.6978°
Mean anomaly
87.3794°
Rev number
7,091

§ Raw data

STARLINK-343581 64313U 25123Y   26263.89432075  .00013091  00000+0  45892-3 0  99912 64313  70.0004  60.0724 0003521 272.6978  87.3794 15.29587458 70910

JSON: /api/v1/satellites/64313 · /tle

For live sub-satellite position, see the globe view (requires WebGL).

§ Visibility from observer

Set your observer location to see the next 7 days of passes ≥ 10°. The values pass through the URL so the page stays shareable.

No JS? Fill the form by hand. The geolocation button needs JavaScript.